TimeCDT,TemperatureF,Dew PointF,Humidity,Sea Level PressureIn,VisibilityMPH,Wind Direction,Wind SpeedMPH,Gust SpeedMPH,PrecipitationIn,Events,Conditions,WindDirDegrees,DateUTC
12:56 AM,81.9,66.9,60,29.90,10.0,SE,13.8,-,N/A,,Clear,130,2013-07-06 05:56:00
1:56 AM,79.9,68.0,67,29.89,10.0,ESE,11.5,-,N/A,,Clear,120,2013-07-06 06:56:00
2:56 AM,79.0,68.9,71,29.88,10.0,ESE,8.1,-,N/A,,Clear,120,2013-07-06 07:56:00
3:56 AM,77.0,70.0,79,29.87,10.0,East,6.9,-,N/A,,Clear,100,2013-07-06 08:56:00
4:56 AM,75.9,70.9,84,29.86,10.0,East,6.9,-,N/A,,Clear,100,2013-07-06 09:56:00
5:56 AM,75.9,70.9,84,29.86,10.0,East,6.9,-,N/A,,Partly Cloudy,100,2013-07-06 10:56:00
6:56 AM,74.8,70.9,87,29.86,10.0,East,6.9,-,N/A,,Clear,100,2013-07-06 11:56:00
7:56 AM,77.0,72.0,84,29.88,10.0,East,8.1,-,N/A,,Clear,100,2013-07-06 12:56:00
8:56 AM,81.9,72.9,74,29.88,10.0,ESE,10.4,-,N/A,,Clear,120,2013-07-06 13:56:00
9:56 AM,83.8,70.9,65,29.89,10.0,East,3.5,-,N/A,,Unknown,90,2013-07-06 14:56:00
10:56 AM,88.0,68.0,51,29.88,10.0,Variable,5.8,-,N/A,,Partly Cloudy,0,2013-07-06 15:56:00
11:56 AM,91.9,65.8,42,29.88,10.0,SE,6.9,-,N/A,,Partly Cloudy,130,2013-07-06 16:56:00
12:56 PM,92.8,63.9,38,29.87,10.0,SE,8.1,16.1,N/A,,Unknown,130,2013-07-06 17:56:00
1:56 PM,95.0,61.9,33,29.85,10.0,Variable,3.5,-,N/A,,Clear,0,2013-07-06 18:56:00
2:56 PM,97.9,61.0,29,29.81,10.0,Variable,6.9,-,N/A,,Clear,0,2013-07-06 19:56:00
3:56 PM,99.9,59.9,27,29.79,10.0,East,5.8,16.1,N/A,,Partly Cloudy,80,2013-07-06 20:56:00
4:56 PM,100.9,57.9,24,29.76,10.0,SE,9.2,-,N/A,,Clear,140,2013-07-06 21:56:00
5:56 PM,100.9,59.0,25,29.75,10.0,East,8.1,-,N/A,,Partly Cloudy,80,2013-07-06 22:56:00
6:56 PM,95.9,64.9,36,29.76,10.0,ESE,18.4,26.5,N/A,,Partly Cloudy,110,2013-07-06 23:56:00
7:56 PM,91.9,66.9,44,29.79,10.0,ESE,17.3,-,N/A,,Scattered Clouds,120,2013-07-07 00:56:00
8:56 PM,90.0,68.0,48,29.81,10.0,ESE,16.1,-,N/A,,Partly Cloudy,120,2013-07-07 01:56:00
9:56 PM,88.0,68.9,53,29.83,10.0,ESE,13.8,-,N/A,,Unknown,120,2013-07-07 02:56:00
10:56 PM,86.9,70.0,57,29.86,10.0,SE,15.0,-,N/A,,Unknown,140,2013-07-07 03:56:00
11:56 PM,84.9,70.9,63,29.86,10.0,ESE,13.8,-,N/A,,Unknown,120,2013-07-07 04:56:00